Location: Unspecified
(47.5840°N, 122.3000°W)
Time: 02:25:03
(UTC+00:00)

Cosmos 2333 Rocket - Pass Details

Date: 09 December 2025
Orbit: 837 x 865 km, 70.8° (Epoch: 12 January)

Event Time Altitude Azimuth Distance (km) Brightness Sun altitude
Exits shadow 12:52:39 25° 0° (N) 1,682 3.7 -28.1°
Maximum altitude 12:55:25 40° 52° (NE) 1,253 3.3 -27.7°
Drops below altitude 10° 13:00:48 10° 122° (ESE) 2,494 5.4 -26.7°
Sets 13:03:24 0° 130° (SE) 3,423 6.2 -26.3°
